FENGYUN 1C DEB, 29821

Orbit data source: Space-Track

FENGYUN 1C DEB, 29821 is space debris in SSO originally from a launch on Mon, 10 May 1999 UTC launched from the Taiyaun Space Center, China (TSC). Fengyun 1C debris stems from the Chinese weather satellite Fengyun-1C, which was intentionally destroyed by a Chinese anti-satellite missile in 2007. This event dramatically increased the amount of space debris, with thousands of trackable fragments posing hazards to satellites and human spaceflight. The Fengyun 1C debris cloud has become a focal point in discussions about space sustainability and the need for international regulations to prevent the creation of new debris.

Loading next visibility...
Identifier
29821, 1999-025DP
Orbit
SSO
Country
Flag of CNCN / PRC
Related business
Manufacturer
Unknown
Mission
Spacecraft
Bus & Motor
Unknown
Mass
Unknown
Launch date (UTC)
1999-05-10 (27 years ago)
Launch vehicle
Unknown
Launch site
Taiyaun Space Center, China (TSC)
Object type
Payload
Rocket body
Debris
Shape & HBR
Unknown shape, 0.1 m
Radar Cross Section
Medium (>0.1 m² and <1 m²)

Expand to show TLE details & history
Last TLE update: 12 hours ago

TLE from 12 hours ago
0 FENGYUN 1C DEB
1 29821U 99025DP  26207.14934633  .00001863  00000-0  54316-3 0  9997
2 29821  98.8455 264.8473 0371614 201.1227 219.0800 14.12034508996916
Epoch: 2026-07-26T03:35Z
TLE epoch observation values (Epoch: 2026-07-26T03:35:03.522Z)
Latitude
56.64974°
Longitude
-106.37531°
Altitude
1,074.275 km
Speed
7.212 km/s
True Right ascension
16h 44m 57s
True Declination
56° 29' 54"
Sunlit
Object was in daylight at epoch
Visualization orbit readout
Latitude
Unknown
Longitude
Unknown
Altitude
Unknown
Speed
Unknown
Apparent Right ascension
Unknown
Apparent Declination
Unknown
Sunlit
N/A
Visualization observer readout
Local Sidereal Time
05:16:12
Azimuth
Unknown
Elevation
Unknown
Doppler factor
Unknown
Orbital elements
Apogee altitude
1,118.18 km
Perigee altitude
580.996 km
Semi-major axis
7,227.725 km
Eccentricity
0.03716
Inclination
98.8455°
RAAN
264.8473°
Arg. of periapsis
201.1227°
True anomaly
216.48993°
Mean anomaly
219.08°
Eccentric anomaly
217.77572°
Mean motion
3.53216 °/min
Orbital period
101.92 mins
BSTAR
0.00054316
Loading maneuver chart data...
Computing Atmospheric mass density...

Documentation

Showing up to 5 results
|